{"data":{"norad_id":64702,"intl_designator":"2025-142G","name":"STARLINK-34322","alt_names":[],"object_type":"PAYLOAD","status":"ACTIVE","operator":null,"country":"US","launch_date":"2025-06-28","launch_site_code":"AFWTR","launch_vehicle":null,"mission":null,"orbit_class":"UNKNOWN","rcs_meters":null,"size_class":null,"mass_kg":null,"dimensions":null,"purposes":["comms"],"wikipedia_slug":null,"has_3d_model":false,"image_url":null,"decayed_at":null,"tle_current":{"epoch":"2026-09-20T05:16:27.656256Z","epoch_age_seconds":151824,"freshness":"FRESH","line1":"1 64702U 25142G   26263.21976454  .00010905  00000+0  38311-3 0  9993","line2":"2 64702  70.0008 181.7927 0002710 269.1384  90.9481 15.29591129 68834","mean_motion":15.29591129,"eccentricity":0.000271,"inclination_deg":70.0008,"raan_deg":181.7927,"arg_perigee_deg":269.1384,"mean_anomaly_deg":90.9481,"bstar":0.00038311,"rev_number":6883,"period_min":94.142805400645,"perigee_km":475.17590025826,"apogee_km":478.89140275137,"semimajor_km":6855.1706515048,"source":"CELESTRAK","updated_at":"2026-09-21T09:00:35.403923Z"}}}